Theta_e
296 297 297 297 300 305 305 314 315 314 314 314 313 312 311 313 310 311 311 310 307 301
296 295 295 295 297 297 305 307 314 313 313 314 313 312 312 311 310 310 311 310 307 301
296 296 295 294 295 296 298 304 310 313 313 313 312 311 311 310 310 308 310 306 307 304
295 296 295 295 295 295 296 295 299 312 312 311 310 309 308 308 308 305 306 305 304 304
293 295 295 295 294 295 295 294 297 305 311 310 308 308 306 304 303 302 300 301 301 303
288 291 292 293 295 294 293 292 292 296 309 307 306 305 306 305 303 303 303 301 300 302
282 287 289 291 294 294 292 291 291 294 309 306 305 304 304 303 304 303 305 306 304 304
279 281 281 286 291 293 291 291 292 292 307 305 304 301 302 300 301 300 300 300 299 302
277 277 279 285 287 291 290 290 291 292 304 302 301 297 299 300 300 298 295 294 296 297
275 276 278 279 287 289 289 289 290 292 302 302 302 298 298 297 300 297 295 294 293 291
275 276 277 280 284 288 288 289 290 293 300 301 301 298 297 295 299 296 294 294 292 292
276 275 277 278 281 286 287 289 289 292 293 295 295 297 297 296 295 292 292 292 292 291
276 275 275 277 281 283 286 288 289 290 292 293 292 296 296 296 296 291 292 292 291 290
273 276 276 278 281 282 285 288 288 289 291 292 293 293 296 296 294 294 292 292 291 292
Wind_Speed
18 8 9 12 15 15 9 14 20 22 21 22 23 20 19 16 16 15 12 17 13 9
17 13 8 12 13 12 16 13 20 23 21 22 23 23 21 16 18 18 16 15 15 12
18 18 11 9 12 13 16 17 19 24 23 22 22 23 22 18 19 20 16 14 18 15
19 17 15 12 11 8 14 17 14 22 24 23 23 23 22 20 20 21 18 16 18 19
20 17 16 15 13 10 12 16 19 21 25 24 24 22 23 21 20 22 19 18 17 18
23 20 16 17 14 12 10 14 19 22 25 24 24 23 23 22 22 21 21 20 19 19
24 22 20 20 15 12 11 12 19 17 22 23 23 23 21 21 21 21 21 21 21 20
23 21 24 23 16 13 12 11 16 18 22 23 21 18 22 20 21 21 18 18 18 18
22 21 22 22 21 15 13 11 15 18 20 21 16 26 34 25 18 19 19 17 16 16
21 22 20 20 21 15 13 11 14 20 18 21 21 29 32 32 18 17 18 18 16 13
19 20 19 19 19 14 11 11 12 18 14 18 17 28 31 29 19 16 17 18 18 18
17 19 18 18 17 13 11 11 11 12 10 15 13 27 30 27 15 14 16 15 17 18
17 18 19 17 15 15 11 14 9 9 11 14 13 25 29 26 13 13 12 14 15 24
22 16 17 17 14 13 13 12 9 9 9 12 14 18 30 31 15 13 12 12 12 13
Wind_Direction
299 299 306 321 324 300 273 224 190 186 185 181 176 177 177 182 174 175 180 189 187 180
285 285 288 306 301 314 303 301 197 183 184 183 177 175 179 182 174 175 183 193 189 185
279 283 281 289 287 300 311 293 284 187 182 184 177 173 178 179 180 176 181 185 187 190
276 271 280 281 275 281 307 318 307 204 186 182 178 174 176 176 176 177 179 182 185 190
273 268 265 273 278 285 288 294 281 273 185 184 175 177 175 172 173 177 180 182 183 189
315 304 288 281 276 269 273 289 311 297 188 181 179 178 181 177 170 182 182 182 186 189
301 298 287 281 274 276 281 291 301 298 199 181 178 175 181 183 179 181 191 192 193 189
292 298 294 298 290 277 274 285 290 296 219 179 176 175 176 182 183 179 187 190 193 198
287 286 288 288 277 273 270 276 279 286 218 173 177 183 172 176 181 182 176 184 187 196
280 279 279 275 279 260 259 268 275 283 213 180 182 180 175 175 182 182 182 178 182 185
278 274 276 276 273 258 263 257 269 266 207 184 183 179 175 177 174 183 184 177 177 182
282 274 275 267 279 280 270 263 269 251 191 196 173 174 176 173 174 176 183 182 178 183
277 273 269 269 269 262 268 262 266 238 197 191 165 173 175 175 177 174 180 182 186 184
302 262 260 264 265 267 264 258 260 226 197 189 175 175 178 182 180 180 180 183 191 189